Time,TemperatureF,DewpointF,PressureIn,WindDirection,WindDirectionDegrees,WindSpeedMPH,WindSpeedGustMPH,Humidity,HourlyPrecipIn,Conditions,Clouds,dailyrainin,SoftwareType,DateUTC
2017-03-23 00:03:00,49.8,29.3,30.25,East,79,0.0,0.0,45,0.00,,,0.00,meteobridge,2017-03-23 04:03:00,
2017-03-23 00:08:00,49.6,30.2,30.25,East,79,0.0,0.0,47,0.00,,,0.00,meteobridge,2017-03-23 04:08:00,
2017-03-23 00:13:00,49.5,29.5,30.25,East,79,0.0,0.0,46,0.00,,,0.00,meteobridge,2017-03-23 04:13:00,
2017-03-23 00:19:00,49.3,30.9,30.26,East,79,0.0,0.0,49,0.00,,,0.00,meteobridge,2017-03-23 04:19:00,
2017-03-23 00:24:00,48.9,30.0,30.26,East,79,0.0,0.0,48,0.00,,,0.00,meteobridge,2017-03-23 04:24:00,
2017-03-23 00:29:00,48.7,29.5,30.26,East,79,0.0,0.0,47,0.00,,,0.00,meteobridge,2017-03-23 04:29:00,
2017-03-23 00:34:00,48.6,29.3,30.27,East,79,0.0,0.0,47,0.00,,,0.00,meteobridge,2017-03-23 04:34:00,
2017-03-23 00:39:00,48.4,29.7,30.27,East,79,0.0,0.0,48,0.00,,,0.00,meteobridge,2017-03-23 04:39:00,
2017-03-23 00:44:00,48.0,29.8,30.27,East,79,0.0,1.0,49,0.00,,,0.00,meteobridge,2017-03-23 04:44:00,
2017-03-23 00:49:00,47.7,30.4,30.27,East,79,0.0,0.0,51,0.00,,,0.00,meteobridge,2017-03-23 04:49:00,
2017-03-23 00:54:00,47.7,29.5,30.27,East,79,0.0,0.0,49,0.00,,,0.00,meteobridge,2017-03-23 04:54:00,
2017-03-23 01:00:00,47.7,30.9,30.27,East,79,0.0,0.0,52,0.00,,,0.00,meteobridge,2017-03-23 05:00:00,
2017-03-23 01:05:00,47.7,30.9,30.27,East,79,0.0,0.0,52,0.00,,,0.00,meteobridge,2017-03-23 05:05:00,
2017-03-23 01:10:00,47.7,28.4,30.27,East,79,0.0,0.0,47,0.00,,,0.00,meteobridge,2017-03-23 05:10:00,
2017-03-23 01:15:00,47.7,30.0,30.27,East,79,0.0,0.0,50,0.00,,,0.00,meteobridge,2017-03-23 05:15:00,
2017-03-23 01:20:00,47.1,30.9,30.27,East,79,0.0,0.0,53,0.00,,,0.00,meteobridge,2017-03-23 05:20:00,
2017-03-23 01:25:00,46.8,30.0,30.27,East,79,0.0,1.0,52,0.00,,,0.00,meteobridge,2017-03-23 05:25:00,
2017-03-23 01:30:00,46.6,29.5,30.27,East,79,0.0,0.0,51,0.00,,,0.00,meteobridge,2017-03-23 05:30:00,
2017-03-23 01:35:00,46.4,28.8,30.27,East,79,0.0,1.0,50,0.00,,,0.00,meteobridge,2017-03-23 05:35:00,
2017-03-23 01:41:00,46.4,29.7,30.27,NE,35,0.0,1.0,52,0.00,,,0.00,meteobridge,2017-03-23 05:41:00,
2017-03-23 01:46:00,46.4,29.3,30.28,NE,38,0.0,0.0,51,0.00,,,0.00,meteobridge,2017-03-23 05:46:00,
2017-03-23 01:51:00,46.6,28.4,30.28,NE,38,0.0,1.0,49,0.00,,,0.00,meteobridge,2017-03-23 05:51:00,
2017-03-23 01:56:00,46.8,28.0,30.28,NE,38,0.0,0.0,48,0.00,,,0.00,meteobridge,2017-03-23 05:56:00,
2017-03-23 02:01:00,46.8,27.7,30.29,NE,38,0.0,0.0,47,0.00,,,0.00,meteobridge,2017-03-23 06:01:00,
2017-03-23 02:06:00,46.9,28.2,30.29,ENE,65,0.9,1.0,48,0.00,,,0.00,meteobridge,2017-03-23 06:06:00,
2017-03-23 02:11:00,46.9,28.8,30.29,ENE,65,0.0,0.0,49,0.00,,,0.00,meteobridge,2017-03-23 06:11:00,
2017-03-23 02:16:00,46.8,28.0,30.29,ENE,57,0.0,1.0,48,0.00,,,0.00,meteobridge,2017-03-23 06:16:00,
2017-03-23 02:22:00,46.8,28.0,30.29,ENE,57,0.0,0.0,48,0.00,,,0.00,meteobridge,2017-03-23 06:22:00,
2017-03-23 02:27:00,46.6,25.9,30.29,East,90,0.0,6.0,44,0.00,,,0.00,meteobridge,2017-03-23 06:27:00,
2017-03-23 02:32:00,46.8,26.6,30.29,East,80,0.0,1.0,45,0.00,,,0.00,meteobridge,2017-03-23 06:32:00,
2017-03-23 02:37:00,46.9,25.5,30.29,East,91,0.0,2.0,43,0.00,,,0.00,meteobridge,2017-03-23 06:37:00,
2017-03-23 02:42:00,46.9,27.7,30.29,East,84,0.0,0.0,47,0.00,,,0.00,meteobridge,2017-03-23 06:42:00,
2017-03-23 02:47:00,46.8,24.8,30.29,West,265,0.9,2.0,42,0.00,,,0.00,meteobridge,2017-03-23 06:47:00,
2017-03-23 02:52:00,46.8,26.6,30.29,ESE,114,0.0,2.0,45,0.00,,,0.00,meteobridge,2017-03-23 06:52:00,
2017-03-23 02:57:00,46.8,24.8,30.29,ENE,61,0.0,0.0,42,0.00,,,0.00,meteobridge,2017-03-23 06:57:00,
2017-03-23 03:02:00,46.6,26.4,30.30,NE,37,0.0,0.0,45,0.00,,,0.00,meteobridge,2017-03-23 07:02:00,
2017-03-23 03:08:00,46.4,25.7,30.30,NE,45,0.0,0.0,44,0.00,,,0.00,meteobridge,2017-03-23 07:08:00,
2017-03-23 03:13:00,46.2,25.0,30.30,ENE,58,0.0,1.0,43,0.00,,,0.00,meteobridge,2017-03-23 07:13:00,
2017-03-23 03:18:00,46.0,24.3,30.30,ENE,62,0.0,3.0,42,0.00,,,0.00,meteobridge,2017-03-23 07:18:00,
2017-03-23 03:23:00,46.2,23.9,30.30,East,92,0.0,3.0,41,0.00,,,0.00,meteobridge,2017-03-23 07:23:00,
2017-03-23 03:28:00,46.0,23.7,30.30,ENE,63,0.0,3.0,41,0.00,,,0.00,meteobridge,2017-03-23 07:28:00,
2017-03-23 03:33:00,46.0,23.7,30.30,ENE,64,0.0,0.0,41,0.00,,,0.00,meteobridge,2017-03-23 07:33:00,
2017-03-23 03:38:00,46.0,22.5,30.30,East,101,0.0,2.0,39,0.00,,,0.00,meteobridge,2017-03-23 07:38:00,
2017-03-23 03:44:00,46.0,23.7,30.30,East,101,0.0,0.0,41,0.00,,,0.00,meteobridge,2017-03-23 07:44:00,
2017-03-23 03:49:00,46.0,24.8,30.31,ESE,103,0.0,0.0,43,0.00,,,0.00,meteobridge,2017-03-23 07:49:00,
2017-03-23 03:54:00,46.0,23.7,30.31,ENE,73,0.0,0.0,41,0.00,,,0.00,meteobridge,2017-03-23 07:54:00,
2017-03-23 03:59:00,45.9,25.7,30.31,ENE,73,0.0,0.0,45,0.00,,,0.00,meteobridge,2017-03-23 07:59:00,
2017-03-23 04:04:00,45.5,23.2,30.31,SSE,147,0.0,0.0,41,0.00,,,0.00,meteobridge,2017-03-23 08:04:00,
2017-03-23 04:09:00,45.3,24.6,30.31,SSW,195,2.0,2.0,44,0.00,,,0.00,meteobridge,2017-03-23 08:09:00,
2017-03-23 04:14:00,45.1,24.4,30.31,SE,131,0.0,0.0,44,0.00,,,0.00,meteobridge,2017-03-23 08:14:00,
2017-03-23 04:19:00,45.0,24.4,30.31,ESE,119,0.0,1.0,44,0.00,,,0.00,meteobridge,2017-03-23 08:19:00,
2017-03-23 04:24:00,44.8,23.0,30.31,NE,51,0.0,0.0,42,0.00,,,0.00,meteobridge,2017-03-23 08:24:00,
2017-03-23 04:30:00,44.8,23.7,30.31,SE,146,0.0,2.0,43,0.00,,,0.00,meteobridge,2017-03-23 08:30:00,
2017-03-23 04:35:00,44.8,23.7,30.31,SE,146,0.0,0.0,43,0.00,,,0.00,meteobridge,2017-03-23 08:35:00,
2017-03-23 04:40:00,44.6,24.1,30.31,ENE,71,0.0,0.0,44,0.00,,,0.00,meteobridge,2017-03-23 08:40:00,
2017-03-23 04:45:00,44.4,23.9,30.32,ENE,71,0.0,0.0,44,0.00,,,0.00,meteobridge,2017-03-23 08:45:00,
2017-03-23 04:50:00,44.4,25.0,30.32,ESE,116,0.0,0.0,46,0.00,,,0.00,meteobridge,2017-03-23 08:50:00,
2017-03-23 04:55:00,44.4,23.4,30.32,SE,139,0.0,4.0,43,0.00,,,0.00,meteobridge,2017-03-23 08:55:00,
2017-03-23 05:00:00,44.8,26.2,30.32,SE,139,0.0,0.0,48,0.00,,,0.00,meteobridge,2017-03-23 09:00:00,
2017-03-23 05:06:00,44.8,25.7,30.32,ESE,107,0.0,2.0,47,0.00,,,0.00,meteobridge,2017-03-23 09:06:00,
2017-03-23 05:11:00,45.0,23.7,30.32,East,83,2.0,4.0,43,0.00,,,0.00,meteobridge,2017-03-23 09:11:00,
2017-03-23 05:16:00,45.1,24.4,30.33,East,86,0.0,1.0,44,0.00,,,0.00,meteobridge,2017-03-23 09:16:00,
2017-03-23 05:21:00,45.3,24.6,30.33,East,86,0.0,0.0,44,0.00,,,0.00,meteobridge,2017-03-23 09:21:00,
2017-03-23 05:26:00,45.3,25.7,30.33,East,86,0.0,0.0,46,0.00,,,0.00,meteobridge,2017-03-23 09:26:00,
2017-03-23 05:31:00,45.3,25.7,30.34,East,86,0.0,0.0,46,0.00,,,0.00,meteobridge,2017-03-23 09:31:00,
2017-03-23 05:36:00,45.1,23.4,30.34,East,99,0.0,1.0,42,0.00,,,0.00,meteobridge,2017-03-23 09:36:00,
2017-03-23 05:41:00,45.1,24.4,30.34,East,99,0.0,0.0,44,0.00,,,0.00,meteobridge,2017-03-23 09:41:00,
2017-03-23 05:47:00,45.1,23.4,30.35,ENE,60,0.0,2.0,42,0.00,,,0.00,meteobridge,2017-03-23 09:47:00,
2017-03-23 05:52:00,45.1,23.9,30.35,ENE,67,0.9,1.0,43,0.00,,,0.00,meteobridge,2017-03-23 09:52:00,
2017-03-23 05:57:00,45.0,22.6,30.35,ESE,104,0.0,2.0,41,0.00,,,0.00,meteobridge,2017-03-23 09:57:00,
2017-03-23 06:02:00,44.8,24.3,30.35,NNE,31,0.0,0.0,44,0.00,,,0.00,meteobridge,2017-03-23 10:02:00,
2017-03-23 06:07:00,44.6,23.5,30.35,ESE,103,0.0,0.0,43,0.00,,,0.00,meteobridge,2017-03-23 10:07:00,
2017-03-23 06:12:00,44.6,25.2,30.35,East,86,0.0,0.0,46,0.00,,,0.00,meteobridge,2017-03-23 10:12:00,
2017-03-23 06:17:00,44.6,23.0,30.36,SE,137,0.0,1.0,42,0.00,,,0.00,meteobridge,2017-03-23 10:17:00,
2017-03-23 06:28:00,44.8,25.3,30.36,SE,137,0.0,0.0,46,0.00,,,0.00,meteobridge,2017-03-23 10:28:00,
2017-03-23 06:33:00,44.8,24.3,30.37,East,96,0.9,3.0,44,0.00,,,0.00,meteobridge,2017-03-23 10:33:00,
2017-03-23 06:38:00,44.8,23.0,30.37,ENE,77,4.0,5.0,42,0.00,,,0.00,meteobridge,2017-03-23 10:38:00,
2017-03-23 06:43:00,44.8,23.7,30.37,East,82,0.9,3.0,43,0.00,,,0.00,meteobridge,2017-03-23 10:43:00,
2017-03-23 06:48:00,44.8,23.7,30.37,SSE,162,0.0,0.0,43,0.00,,,0.00,meteobridge,2017-03-23 10:48:00,
2017-03-23 06:53:00,44.6,24.1,30.37,SW,234,0.0,1.0,44,0.00,,,0.00,meteobridge,2017-03-23 10:53:00,
2017-03-23 06:58:00,44.6,23.0,30.37,ESE,107,0.0,0.0,42,0.00,,,0.00,meteobridge,2017-03-23 10:58:00,
2017-03-23 07:03:00,44.6,22.3,30.38,ENE,69,0.0,1.0,41,0.00,,,0.00,meteobridge,2017-03-23 11:03:00,
2017-03-23 07:08:00,44.6,22.3,30.38,ENE,69,0.0,2.0,41,0.00,,,0.00,meteobridge,2017-03-23 11:08:00,
2017-03-23 07:14:00,44.4,23.9,30.38,ENE,69,0.0,0.0,44,0.00,,,0.00,meteobridge,2017-03-23 11:14:00,
2017-03-23 07:19:00,44.4,23.4,30.40,East,98,0.0,0.0,43,0.00,,,0.00,meteobridge,2017-03-23 11:19:00,
2017-03-23 07:24:00,44.4,23.9,30.40,ENE,67,0.0,2.0,44,0.00,,,0.00,meteobridge,2017-03-23 11:24:00,
2017-03-23 07:29:00,44.2,22.1,30.40,ESE,109,0.0,1.0,41,0.00,,,0.00,meteobridge,2017-03-23 11:29:00,
2017-03-23 07:34:00,44.2,22.1,30.40,East,83,2.0,2.0,41,0.00,,,0.00,meteobridge,2017-03-23 11:34:00,
2017-03-23 07:39:00,44.2,23.2,30.40,East,80,0.0,2.0,43,0.00,,,0.00,meteobridge,2017-03-23 11:39:00,
2017-03-23 07:44:00,44.1,23.0,30.41,ENE,76,2.0,3.0,43,0.00,,,0.00,meteobridge,2017-03-23 11:44:00,
2017-03-23 07:50:00,44.1,22.5,30.41,East,83,0.0,0.0,42,0.00,,,0.00,meteobridge,2017-03-23 11:50:00,
2017-03-23 08:00:00,43.9,23.4,30.41,East,101,0.0,1.0,44,0.00,,,0.00,meteobridge,2017-03-23 12:00:00,
2017-03-23 08:05:00,43.9,22.8,30.41,East,79,0.0,0.0,43,0.00,,,0.00,meteobridge,2017-03-23 12:05:00,
2017-03-23 08:10:00,43.9,22.3,30.41,ESE,105,0.0,4.0,42,0.00,,,0.00,meteobridge,2017-03-23 12:10:00,
2017-03-23 08:15:00,43.9,22.8,30.44,NE,50,0.0,7.0,43,0.00,,,0.00,meteobridge,2017-03-23 12:15:00,
2017-03-23 08:20:00,43.9,22.8,30.44,East,93,0.0,5.0,43,0.00,,,0.00,meteobridge,2017-03-23 12:20:00,
2017-03-23 08:25:00,43.9,23.4,30.44,ESE,103,0.0,0.0,44,0.00,,,0.00,meteobridge,2017-03-23 12:25:00,
2017-03-23 08:26:00,43.9,23.9,30.44,NE,47,0.9,6.0,45,0.00,,,0.00,meteobridge,2017-03-23 12:26:00,
2017-03-23 08:31:00,43.9,23.4,30.45,ESE,107,2.0,3.0,44,0.00,,,0.00,meteobridge,2017-03-23 12:31:00,
2017-03-23 08:36:00,43.9,22.3,30.45,East,82,0.0,4.0,42,0.00,,,0.00,meteobridge,2017-03-23 12:36:00,
2017-03-23 08:41:00,43.9,23.4,30.45,ENE,65,0.0,5.0,44,0.00,,,0.00,meteobridge,2017-03-23 12:41:00,
2017-03-23 08:46:00,43.9,23.4,30.45,ESE,110,0.0,2.0,44,0.00,,,0.00,meteobridge,2017-03-23 12:46:00,
2017-03-23 08:51:00,43.9,23.9,30.45,East,98,0.0,0.0,45,0.00,,,0.00,meteobridge,2017-03-23 12:51:00,
2017-03-23 08:56:00,44.2,23.7,30.45,East,94,0.0,1.0,44,0.00,,,0.00,meteobridge,2017-03-23 12:56:00,
2017-03-23 09:01:00,44.6,23.5,30.46,SE,126,0.0,4.0,43,0.00,,,0.00,meteobridge,2017-03-23 13:01:00,
2017-03-23 09:06:00,45.1,23.4,30.46,NNE,24,2.9,4.0,42,0.00,,,0.00,meteobridge,2017-03-23 13:06:00,
2017-03-23 09:11:00,45.1,22.3,30.46,SW,231,0.9,5.0,40,0.00,,,0.00,meteobridge,2017-03-23 13:11:00,
2017-03-23 09:16:00,45.1,22.3,30.46,ENE,73,0.9,4.0,40,0.00,,,0.00,meteobridge,2017-03-23 13:16:00,
2017-03-23 09:21:00,45.3,23.0,30.46,East,101,2.0,6.0,41,0.00,,,0.00,meteobridge,2017-03-23 13:21:00,
2017-03-23 09:26:00,45.3,23.0,30.46,SSE,159,2.0,2.0,41,0.00,,,0.00,meteobridge,2017-03-23 13:26:00,
2017-03-23 09:32:00,45.9,23.5,30.47,ESE,119,2.0,4.0,41,0.00,,,0.00,meteobridge,2017-03-23 13:32:00,
2017-03-23 09:37:00,46.2,21.9,30.47,East,98,0.0,4.0,38,0.00,,,0.00,meteobridge,2017-03-23 13:37:00,
2017-03-23 09:42:00,46.8,23.2,30.47,East,84,0.9,3.0,39,0.00,,,0.00,meteobridge,2017-03-23 13:42:00,
2017-03-23 09:47:00,47.3,22.3,30.47,East,98,0.9,6.0,37,0.00,,,0.00,meteobridge,2017-03-23 13:47:00,
2017-03-23 09:52:00,47.7,22.1,30.47,SE,131,0.0,5.0,36,0.00,,,0.00,meteobridge,2017-03-23 13:52:00,
2017-03-23 09:55:00,47.7,22.1,30.47,East,97,0.9,3.0,36,0.00,,,0.00,meteobridge,2017-03-23 13:55:00,
2017-03-23 10:00:00,47.7,22.1,30.47,ESE,119,0.0,6.0,36,0.00,,,0.00,meteobridge,2017-03-23 14:00:00,
2017-03-23 10:15:00,47.8,22.1,30.48,SSE,168,4.9,6.0,36,0.00,,,0.00,meteobridge,2017-03-23 14:15:00,
2017-03-23 10:45:00,50.4,20.8,30.48,ESE,120,0.0,4.0,31,0.00,,,0.00,meteobridge,2017-03-23 14:45:00,
2017-03-23 10:50:00,50.7,22.6,30.48,SSE,156,0.0,4.0,33,0.00,,,0.00,meteobridge,2017-03-23 14:50:00,
2017-03-23 10:55:00,51.1,21.6,30.48,South,186,4.0,7.0,31,0.00,,,0.00,meteobridge,2017-03-23 14:55:00,
2017-03-23 11:20:00,50.7,19.6,30.48,ESE,106,0.9,4.0,29,0.00,,,0.00,meteobridge,2017-03-23 15:20:00,
2017-03-23 11:25:00,51.1,20.7,30.48,East,97,0.0,6.0,30,0.00,,,0.00,meteobridge,2017-03-23 15:25:00,
2017-03-23 11:45:00,51.4,21.0,30.47,NE,45,0.0,4.0,30,0.00,,,0.00,meteobridge,2017-03-23 15:45:00,
2017-03-23 12:00:00,53.1,21.6,30.47,East,82,0.0,5.0,29,0.00,,,0.00,meteobridge,2017-03-23 16:00:00,
2017-03-23 12:06:00,53.4,22.8,30.47,South,187,0.0,5.0,30,0.00,,,0.00,meteobridge,2017-03-23 16:06:00,
2017-03-23 12:11:00,53.4,21.2,30.47,NE,42,0.0,5.0,28,0.00,,,0.00,meteobridge,2017-03-23 16:11:00,
2017-03-23 12:16:00,54.0,22.5,30.47,NE,46,2.0,3.0,29,0.00,,,0.00,meteobridge,2017-03-23 16:16:00,
2017-03-23 12:31:00,54.5,22.1,30.47,ESE,123,0.9,6.0,28,0.00,,,0.00,meteobridge,2017-03-23 16:31:00,
2017-03-23 12:51:00,55.4,24.4,30.46,East,98,0.0,4.0,30,0.00,,,0.00,meteobridge,2017-03-23 16:51:00,
2017-03-23 13:08:00,55.2,22.6,30.45,SE,134,0.0,4.0,28,0.00,,,0.00,meteobridge,2017-03-23 17:08:00,
2017-03-23 13:13:00,55.0,22.5,30.45,South,186,4.0,6.0,28,0.00,,,0.00,meteobridge,2017-03-23 17:13:00,
2017-03-23 13:18:00,55.2,22.6,30.45,South,189,4.9,5.0,28,0.00,,,0.00,meteobridge,2017-03-23 17:18:00,
2017-03-23 13:23:00,55.8,23.2,30.45,East,84,0.0,3.0,28,0.00,,,0.00,meteobridge,2017-03-23 17:23:00,
2017-03-23 13:28:00,56.1,24.3,30.45,SSE,168,0.0,5.0,29,0.00,,,0.00,meteobridge,2017-03-23 17:28:00,
2017-03-23 13:33:00,56.5,23.7,30.45,South,169,0.0,3.0,28,0.00,,,0.00,meteobridge,2017-03-23 17:33:00,
2017-03-23 13:38:00,56.7,23.9,30.45,SE,144,4.0,5.0,28,0.00,,,0.00,meteobridge,2017-03-23 17:38:00,